Location: Pacheco
(37.9835°N, 122.0752°W)
Time: 13:28:45
(UTC+00:00)

FENGYUN 1C DEB - Visible Passes

Search period start: 14 September 2024 00:00
Search period end: 24 September 2024 00:00
Orbit: 817 x 852 km, 98.5° (Epoch: 12 September)

Date Brightness Start Highest point End Pass type
(mag) Time Alt. Az. Time Alt. Az. Time Alt. Az.
15 Sep ? 13:17:17 10° NNE 13:22:41 58° E 13:28:05 10° S visible
16 Sep ? 13:01:02 10° NNE 13:06:12 41° E 13:11:21 10° SSE visible
17 Sep ? 12:44:56 10° NE 12:49:40 29° E 12:54:22 10° SSE visible
18 Sep ? 12:29:04 10° NE 12:33:05 20° E 12:37:05 10° SE visible
19 Sep ? 12:13:38 10° ENE 12:16:27 14° E 12:19:15 10° ESE visible
21 Sep ? 13:18:55 10° NNE 13:24:22 61° E 13:29:49 10° S visible
22 Sep ? 13:02:37 10° NNE 13:07:50 43° E 13:13:03 10° S visible
23 Sep ? 12:46:28 10° NE 12:51:17 30° E 12:56:03 10° SSE visible
